Home > Weather > Bo > Past weeks

Flag for Sierra Leone Past Weather in Bo, Sierra Leone — Yesterday and Last 2 Weeks

Now
84 °F

Partly sunny.


Feels Like: 94 °F
Forecast: N/A
Wind: 9 mph from Southwest

Location: Roberts Field

Current Time: May 28, 2016 at 4:20:24 PM

Latest Report: May 28, 2016 at 4:00 PM


Visibility: N/A

Pressure: 29.95 "Hg

Humidity: 79%

Dew Point: 77 °F

Location of BoLocation

Past Weather in Bo — Graph

°F

Bo Temperature Yesterday

Maximum temperature yesterday: 88 °F (at 11:00 AM)
Minimum temperature yesterday: 73 °F (at 4:30 AM)
Average temperature yesterday: 79 °F

High & Low Weather Summary for the Past Weeks

 TemperatureHumidityPressure
High90 °F (May 17, 1:00 PM)100% (May 15, 3:30 AM)30.04 "Hg (May 15, 3:30 AM)
Low73 °F (May 15, 3:30 AM)66% (May 16, 1:00 PM)29.83 "Hg (May 17, 3:30 PM)
Average80 °F89%29.94 "Hg
* Reported May 13 3:00 PM — May 28 3:00 PM, Bo, Weather by CustomWeather, © 2016

Note: Actual official high and low records may vary slightly from our data, if they occured in-between our weather recording intervals... More about our weather records

Advertising

Bo Weather History for the Previous 24 Hours

Scroll right to see more
 ConditionsComfort  
Time TempWeatherWind HumidityBarometerVisibility
3:00 PM
Sat, May 28
86 °FPartly sunny.15 mph75%29.98 "HgN/A
2:30 PM88 °FPartly sunny.14 mph75%29.98 "HgN/A
2:00 PM88 °FPartly sunny.16 mph75%29.98 "HgN/A
1:30 PM88 °FPartly sunny.15 mph75%29.98 "HgN/A
1:00 PM88 °FPartly sunny.14 mph70%30.01 "HgN/A
12:30 PM88 °FPartly sunny.14 mph70%30.01 "HgN/A
12:00 PM86 °FPartly sunny.12 mph79%30.01 "HgN/A
11:30 AM88 °FPartly sunny.5 mph70%30.01 "HgN/A
11:00 AM86 °FPartly sunny.6 mph75%30.01 "HgN/A
10:30 AM86 °FPartly sunny.6 mph75%30.01 "HgN/A
10:00 AM86 °FScattered clouds.7 mph75%30.04 "HgN/A
9:30 AM84 °FScattered clouds.9 mph84%30.01 "HgN/A
9:00 AM82 °FPassing clouds.No wind84%30.01 "HgN/A
8:30 AM81 °FPassing clouds.No wind89%30.01 "HgN/A
8:00 AM77 °FPassing clouds.No wind94%30.01 "HgN/A
7:30 AM75 °FThunderstorms. Passing clouds.No wind94%30.01 "HgN/A
7:00 AM75 °FThunderstorms. Passing clouds.No wind94%30.01 "HgN/A
6:30 AM75 °FThunderstorms. Passing clouds.No wind94%30.01 "Hg6 mi
6:00 AM75 °FThunderstorms. Passing clouds.No wind94%30.01 "Hg5 mi
3:30 AM77 °FPassing clouds.No wind94%29.98 "Hg5 mi
3:00 AM77 °FPassing clouds.No wind94%29.98 "Hg5 mi
12:00 AM77 °FPassing clouds.No wind94%30.01 "HgN/A
11:00 PM
Fri, May 27
77 °FPassing clouds.No wind100%30.01 "HgN/A
10:30 PM77 °FPassing clouds.No wind100%30.01 "HgN/A
10:00 PM77 °FPassing clouds.No wind94%30.01 "HgN/A
9:30 PM77 °FPassing clouds.No wind94%29.98 "HgN/A
9:00 PM77 °FPassing clouds.No wind94%29.98 "HgN/A
8:00 PM77 °FPassing clouds.No wind94%29.95 "HgN/A
7:30 PM77 °FPartly sunny.No wind94%29.92 "HgN/A
7:00 PM77 °FThunderstorms. Partly sunny.No wind94%29.92 "HgN/A
6:30 PM77 °FThunderstorms. Partly sunny.No wind94%29.92 "HgN/A
6:00 PM79 °FThunderstorms. Partly sunny.12 mph94%29.92 "Hg4 mi
5:30 PM79 °FThunderstorms. Broken clouds.13 mph94%29.92 "Hg1 mi
5:00 PM81 °FThunderstorms. Partly sunny.14 mph89%29.89 "HgN/A
4:30 PM82 °FPartly sunny.16 mph84%29.89 "HgN/A
4:00 PM86 °FPartly sunny.15 mph75%29.89 "HgN/A
Weather by CustomWeather, © 2016

See weather overviewHow to use our weather pages